Weather History for Saipan, MP

Change the Weather History Date:

Saturday, November 17, 2012

  Actual Average Record
Temperature  
Mean Temperature 84 °F -  
Max Temperature 88 °F 84 °F 88 °F (2012)
Min Temperature 80 °F 76 °F 77 °F (1999)
Cooling Degree Days 19    
Growing Degree Days 34 (Base 50)    
Moisture  
Dew Point 74 °F    
Average Humidity 73    
Maximum Humidity 82    
Minimum Humidity 61    
Precipitation  
Precipitation 0.06 in - - ()
Sea Level Pressure  
Sea Level Pressure 29.96 in    
Wind  
Wind Speed 18 mph (NE)    
Max Wind Speed 26 mph    
Max Gust Speed 31 mph    
Visibility 10 miles    
Events Rain    
Averages and records for this station are not official NWS values.
T = Trace of Precipitation, MM = Missing Value Source: NWS Daily Summary

Daily Weather History Graph

Daily Weather History Graph

Search for Another Location

Airport:

Trip Planner

Search our weather history database for the weather conditions in past years. The results will help you decide how hot, cold, wet, or windy it might be!

Date:

Astronomy

Nov. 17, 2012 Rise Set
Actual Time 6:19 AM ChST 5:44 PM ChST
Civil Twilight 5:57 AM ChST 6:06 PM ChST
Nautical Twilight 5:30 AM ChST 6:32 PM ChST
Astronomical Twilight 5:05 AM ChST 6:58 PM ChST
Moon 9:27 AM ChST (11/17) 9:10 PM ChST (11/17)
Length of Visible Light 12h 09m
Length of Day
11h 24m
Waxing Crescent, 14% of the Moon is Illuminated
Nov 17
Waxing Crescent
Nov 21
First Quarter
Nov 29
Full
Dec 7
Last Quarter
Dec 13
New

Hourly Weather History & Observations

Time (ChST) Temp. Heat Index Dew Point Humidity Pressure Visibility Wind Dir Wind Speed Gust Speed Precip Events Conditions
12:23 AM 82.4 °F 89.5 °F 75.2 °F 79% 29.93 in 10.0 mi NE 16.1 mph 20.7 mph 0.00 in   Mostly Cloudy
12:52 AM 82.4 °F 88.2 °F 73.4 °F 74% 29.92 in 10.0 mi NE 15.0 mph - 0.00 in   Scattered Clouds
12:54 AM 82.0 °F 87.9 °F 73.9 °F 76% 29.98 in 10.0 mi NE 16.1 mph - 0.00 in   Scattered Clouds
1:32 AM 82.4 °F 89.5 °F 75.2 °F 79% 29.91 in 10.0 mi NNE 17.3 mph 23.0 mph 0.00 in   Mostly Cloudy
1:54 AM 81.0 °F 86.7 °F 75.0 °F 82% 29.97 in 8.0 mi NE 18.4 mph 28.8 mph 0.00 in Rain Light Rain
2:54 AM 81.0 °F 86.2 °F 73.9 °F 79% 29.96 in 10.0 mi NNE 20.7 mph 26.5 mph 0.00 in   Mostly Cloudy
3:12 AM 80.6 °F 85.4 °F 73.4 °F 79% 29.89 in 10.0 mi NE 17.3 mph 27.6 mph N/A   Scattered Clouds
3:54 AM 81.0 °F 85.8 °F 73.0 °F 77% 29.95 in 10.0 mi NE 18.4 mph 26.5 mph N/A   Mostly Cloudy
4:54 AM 80.1 °F 84.2 °F 73.0 °F 79% 29.96 in 10.0 mi NE 19.6 mph - 0.06 in   Mostly Cloudy
5:54 AM 81.0 °F 86.2 °F 73.9 °F 79% 29.96 in 10.0 mi ENE 23.0 mph 26.5 mph N/A   Clear
6:54 AM 82.0 °F 87.4 °F 73.0 °F 74% 29.98 in 10.0 mi NE 20.7 mph 26.5 mph N/A   Scattered Clouds
7:54 AM 82.9 °F 88.8 °F 73.0 °F 72% 30.00 in 10.0 mi NE 20.7 mph 28.8 mph N/A   Scattered Clouds
8:54 AM 84.0 °F 91.2 °F 73.9 °F 72% 30.01 in 10.0 mi ENE 23.0 mph 29.9 mph N/A   Scattered Clouds
9:54 AM 87.1 °F 95.4 °F 73.9 °F 65% 30.01 in 10.0 mi ENE 26.5 mph 31.1 mph N/A   Scattered Clouds
10:54 AM 88.0 °F 96.5 °F 73.9 °F 63% 30.00 in 10.0 mi ENE 21.9 mph 31.1 mph N/A   Scattered Clouds
11:54 AM 87.1 °F 95.4 °F 73.9 °F 65% 29.98 in 10.0 mi ENE 24.2 mph 29.9 mph N/A   Scattered Clouds
12:54 PM 88.0 °F 95.6 °F 73.0 °F 61% 29.96 in 10.0 mi ENE 24.2 mph 29.9 mph N/A   Scattered Clouds
1:54 PM 88.0 °F 96.5 °F 73.9 °F 63% 29.94 in 10.0 mi ENE 20.7 mph 29.9 mph N/A   Scattered Clouds
2:54 PM 87.1 °F 96.3 °F 75.0 °F 67% 29.93 in 10.0 mi NE 19.6 mph 29.9 mph N/A   Partly Cloudy
3:28 PM 87.8 °F 97.6 °F 75.2 °F 66% 29.87 in 10.0 mi NE 19.6 mph 25.3 mph N/A   Overcast
3:54 PM 84.9 °F 92.1 °F 73.9 °F 69% 29.93 in 10.0 mi NE 17.3 mph 26.5 mph N/A   Overcast
4:16 PM 84.2 °F 90.9 °F 73.4 °F 70% 29.87 in 10.0 mi ENE 19.6 mph 27.6 mph N/A   Overcast
4:54 PM 84.0 °F 91.2 °F 73.9 °F 72% 29.94 in 10.0 mi ENE 18.4 mph - N/A   Mostly Cloudy
5:54 PM 82.9 °F 90.2 °F 75.0 °F 77% 29.95 in 10.0 mi ENE 17.3 mph 25.3 mph N/A   Mostly Cloudy
6:54 PM 82.9 °F 89.4 °F 73.9 °F 74% 29.96 in 10.0 mi ENE 15.0 mph - N/A   Mostly Cloudy
7:54 PM 82.9 °F 88.8 °F 73.0 °F 72% 29.98 in 10.0 mi East 15.0 mph 21.9 mph N/A   Mostly Cloudy
8:54 PM 82.9 °F 89.4 °F 73.9 °F 74% 29.99 in 10.0 mi ENE 19.6 mph 25.3 mph N/A   Mostly Cloudy
9:54 PM 82.9 °F 88.8 °F 73.0 °F 72% 29.98 in 10.0 mi ENE 18.4 mph - N/A   Mostly Cloudy
10:54 PM 82.0 °F 87.9 °F 73.9 °F 76% 29.98 in 10.0 mi ENE 16.1 mph - N/A   Mostly Cloudy
11:54 PM 82.0 °F 87.9 °F 73.9 °F 76% 29.98 in 10.0 mi ENE 13.8 mph - N/A   Overcast